This is the latest recevied weather packets stored in our database for station/object XQ6AK-15. If no packets are shown the sender has not sent any weather packets the latest 10 day(s).
| Time | Temp. | Humidity | Pressure | Rain* | Wind** | Luminosity | Snow |
|---|---|---|---|---|---|---|---|
| 1787601675 | 8.89° C | 99% | 1009.7 hPa | 0 mm | - | 61 W/m² | - |
| 1787601370 | 8.89° C | 99% | 1009.7 hPa | 0 mm | - | 85 W/m² | - |
| 1787601069 | 8.89° C | 99% | 1009.6 hPa | 1.78 mm | - | 98 W/m² | - |
| 1787600764 | 8.33° C | 99% | 1009.9 hPa | 1.78 mm | - | 117 W/m² | - |
| 1787600460 | 8.33° C | 99% | 1010.1 hPa | 1.27 mm | - | 80 W/m² | - |
| 1787600155 | 8.89° C | 99% | 1010.2 hPa | 3.05 mm | - | 47 W/m² | - |
| 1787599852 | 8.89° C | 99% | 1010.7 hPa | 3.05 mm | - | 50 W/m² | - |
| 1787599548 | 8.89° C | 99% | 1010.4 hPa | 3.05 mm | - | 78 W/m² | - |
| 1787599243 | 8.89° C | 99% | 1010.1 hPa | 1.78 mm | - | 71 W/m² | - |
| 1787598939 | 8.89° C | 99% | 1010.3 hPa | 1.78 mm | - | 59 W/m² | - |
| 1787598634 | 8.89° C | 99% | 1010.4 hPa | 3.05 mm | - | 57 W/m² | - |
| 1787598329 | 8.89° C | 99% | 1010.4 hPa | 1.27 mm | - | 67 W/m² | - |
| 1787598026 | 8.89° C | 99% | 1010.5 hPa | 1.78 mm | - | 73 W/m² | - |
| 1787597725 | 8.89° C | 99% | 1010.8 hPa | 3.05 mm | - | 68 W/m² | - |
| 1787597424 | 8.89° C | 99% | 1010.6 hPa | 1.27 mm | - | 65 W/m² | - |
| 1787597119 | 8.89° C | 99% | 1010.7 hPa | 1.78 mm | - | 75 W/m² | - |
| 1787596815 | 8.89° C | 99% | 1010.5 hPa | 1.78 mm | - | 87 W/m² | - |
| 1787596510 | 8.89° C | 99% | 1010.6 hPa | 1.27 mm | - | 97 W/m² | - |
| 1787596205 | 8.89° C | 99% | 1010.5 hPa | 1.78 mm | - | 94 W/m² | - |
| 1787595902 | 8.89° C | 99% | 1010.8 hPa | 3.05 mm | - | 71 W/m² | - |
| 1787595596 | 8.89° C | 99% | 1010.8 hPa | 3.05 mm | - | 74 W/m² | - |
| 1787595293 | 9.44° C | 98% | 1010.7 hPa | 3.05 mm | - | 72 W/m² | - |
| 1787594992 | 9.44° C | 98% | 1010.8 hPa | 1.78 mm | - | 77 W/m² | - |
| 1787594687 | 9.44° C | 97% | 1011.1 hPa | 1.78 mm | - | 85 W/m² | - |
| 1787594386 | 9.44° C | 97% | 1010.9 hPa | 1.78 mm | - | 80 W/m² | - |
* Rain latest hour (hover to see other rain measurements)
** Current wind speed in m/s (hover to see current wind gust speed)